Location: Cabri�res
(43.7840°N, 5.4986°E)
Time: 10:13:24
(UTC+00:00)

H-2A R/B - Pass Details

Date: 09 April 2020
Orbit: 273 x 32781 km, 28.4° (Epoch: 04 June)

Event Time Altitude Azimuth Distance (km) Brightness Sun altitude
Rises 18:42:22 0° 274° (W) 11,586 10.1 -5.6°
Reaches altitude 10° 18:57:46 10° 260° (W) 5,856 7.6 -8.3°
Maximum altitude 19:04:58 15° 230° (SW) 3,084 5.5 -9.5°
Drops below altitude 10° 19:08:22 10° 193° (SSW) 2,425 4.5 -10.1°
Enters shadow 19:10:37 - 166° (SSE) 2,644 4.5 -10.4°
